CW2401 Weather Reports


Display with metric or nautical units.
time (UTC)temp
F
wind
direction
speed
MPH
gust
MPH
rain 1hr
in
rain 24hr
in
rain mn
in
humidity
%
barometer
mb
20260509142421 67 83 1.0 3.0 0.00 0.00 0.00 79 1013.8
20260509142021 66 190 1.0 6.0 0.00 0.00 0.00 77 1013.8
20260509141822 66 142 1.0 7.0 0.00 0.00 0.00 78 1013.8
20260509141621 66 142 1.0 7.0 0.00 0.00 0.00 78 1013.9
20260509141421 66 117 1.0 7.0 0.00 0.00 0.00 79 1014.0
20260509141218 65 55 1.0 7.0 0.00 0.00 0.00 80 1014.1
20260509141018 65 207 1.0 7.0 0.00 0.00 0.00 81 1014.3
20260509140815 65 157 1.0 3.0 0.00 0.00 0.00 80 1014.4
20260509140614 65 347 1.0 3.0 0.00 0.00 0.00 81 1014.4
20260509140213 64 197 1.0 2.0 0.00 0.00 0.00 82 1014.5
20260509140013 64 128 1.0 2.0 0.00 0.00 0.00 82 1014.5
20260509135611 63 128 1.0 2.0 0.00 0.00 0.00 85 1014.6
20260509135411 63 128 1.0 3.0 0.00 0.00 0.00 84 1014.6
20260509135213 63 128 1.0 3.0 0.00 0.00 0.00 85 1014.6
20260509135010 63 130 1.0 3.0 0.00 0.00 0.00 85 1014.6
20260509134810 62 129 1.0 3.0 0.00 0.00 0.00 85 1014.7
20260509134609 62 188 1.0 3.0 0.00 0.00 0.00 85 1014.8
20260509134407 62 94 1.0 3.0 0.00 0.00 0.00 87 1014.7
20260509134008 62 68 0.0 3.0 0.00 0.00 0.00 88 1014.8
20260509133808 62 68 0.0 3.0 0.00 0.00 0.00 88 1014.8
20260509133607 62 74 0.0 2.0 0.00 0.00 0.00 89 1014.9
20260509133206 61 76 0.0 1.0 0.00 0.00 0.00 89 1014.8
20260509132800 60 71 0.0 1.0 0.00 0.00 0.00 90 1014.8
20260509132557 60 71 0.0 2.0 0.00 0.00 0.00 91 1014.8
20260509132357 59 71 0.0 3.0 0.00 0.00 0.00 92 1014.8
20260509132156 59 71 0.0 3.0 0.00 0.00 0.00 92 1014.8
20260509131957 59 80 0.0 3.0 0.00 0.00 0.00 93 1014.7
20260509131757 58 80 1.0 3.0 0.00 0.00 0.00 94 1014.8
20260509131556 58 80 1.0 3.0 0.00 0.00 0.00 94 1015.0
20260509130954 57 61 0.0 2.0 0.00 0.00 0.00 95 1015.0
20260509130755 57 61 0.0 2.0 0.00 0.00 0.00 95 1015.0
20260509130354 56 60 0.0 1.0 0.00 0.00 0.00 95 1015.0
20260509130149 56 60 0.0 1.0 0.00 0.00 0.00 95 1015.1
20260509125950 56 35 0.0 0.0 0.00 0.00 0.00 95 1014.9
20260509125747 55 35 0.0 2.0 0.00 0.00 0.00 95 1014.9
20260509125547 55 35 0.0 2.0 0.00 0.00 0.00 95 1014.9
20260509125146 54 34 0.0 2.0 0.00 0.00 0.00 95 1014.7
20260509124945 54 34 0.0 2.0 0.00 0.00 0.00 95 1014.7
20260509124743 53 32 0.0 1.0 0.00 0.00 0.00 95 1014.7
20260509124543 53 32 0.0 0.0 0.00 0.00 0.00 95 1014.8
20260509124141 53 31 0.0 0.0 0.00 0.00 0.00 95 1014.8
20260509123939 52 31 0.0 0.0 0.00 0.00 0.00 94 1014.9
20260509123739 52 31 0.0 0.0 0.00 0.00 0.00 95 1014.9
20260509123539 52 31 0.0 0.0 0.00 0.00 0.00 94 1014.9
20260509123340 52 31 0.0 0.0 0.00 0.00 0.00 94 1014.8
20260509123142 51 31 0.0 0.0 0.00 0.00 0.00 95 1014.8
20260509122940 51 31 0.0 0.0 0.00 0.00 0.00 94 1014.7
20260509122539 51 31 0.0 0.0 0.00 0.00 0.00 94 1014.7
20260509122339 51 31 0.0 0.0 0.00 0.00 0.00 94 1014.6
20260509122140 50 31 0.0 0.0 0.00 0.00 0.00 94 1014.5
20260509121941 50 31 0.0 0.0 0.00 0.00 0.00 94 1014.6
20260509121739 50 31 0.0 0.0 0.00 0.00 0.00 94 1014.5
20260509121539 50 31 0.0 0.0 0.00 0.00 0.00 94 1014.4
20260509121341 49 31 0.0 0.0 0.00 0.00 0.00 94 1014.3
20260509121139 49 31 0.0 0.0 0.00 0.00 0.00 94 1014.3
20260509120938 49 31 0.0 0.0 0.00 0.00 0.00 94 1014.3
20260509120737 49 31 0.0 0.0 0.00 0.00 0.00 94 1014.4
20260509120534 49 31 0.0 0.0 0.00 0.00 0.00 94 1014.4
20260509120336 49 31 0.0 0.0 0.00 0.00 0.00 94 1014.4
20260509115732 48 31 0.0 0.0 0.00 0.00 0.00 94 1014.6
20260509115533 48 31 0.0 0.0 0.00 0.00 0.00 94 1014.7
20260509115334 48 31 0.0 0.0 0.00 0.00 0.00 94 1014.8
20260509115134 48 31 0.0 0.0 0.00 0.00 0.00 94 1014.9
20260509114935 48 23 0.0 0.0 0.00 0.00 0.00 94 1014.9
20260509114733 48 23 0.0 0.0 0.00 0.00 0.00 94 1015.0
20260509114533 47 23 0.0 0.0 0.00 0.00 0.00 93 1015.1
20260509114333 47 23 0.0 0.0 0.00 0.00 0.00 93 1015.2
20260509114131 47 23 0.0 0.0 0.00 0.00 0.00 93 1015.2
20260509113931 47 23 0.0 0.0 0.00 0.00 0.00 93 1015.2
20260509113731 47 23 0.0 0.0 0.00 0.00 0.00 93 1015.2
20260509113128 47 23 0.0 0.0 0.00 0.00 0.00 93 1015.1
20260509112928 47 23 0.0 0.0 0.00 0.00 0.00 93 1015.1
20260509112727 47 23 0.0 0.0 0.00 0.00 0.00 93 1015.0
20260509112526 47 23 0.0 0.0 0.00 0.00 0.00 93 1015.0
20260509112323 47 23 0.0 0.0 0.00 0.00 0.00 93 1014.9
20260509111922 47 23 0.0 0.0 0.00 0.00 0.00 93 1014.7
20260509111719 47 23 0.0 0.0 0.00 0.00 0.00 93 1014.5
20260509111317 46 23 0.0 0.0 0.00 0.00 0.00 93 1014.4
20260509111117 46 23 0.0 0.0 0.00 0.00 0.00 92 1014.4
20260509110917 46 23 0.0 0.0 0.00 0.00 0.00 92 1014.4
20260509110716 46 22 0.0 0.0 0.00 0.00 0.00 92 1014.5
20260509110514 46 23 0.0 0.0 0.00 0.00 0.00 93 1014.5
20260509110312 46 23 0.0 0.0 0.00 0.00 0.00 92 1014.5
20260509105910 46 23 0.0 0.0 0.00 0.00 0.00 92 1014.5
20260509105709 46 23 0.0 0.0 0.00 0.00 0.00 92 1014.5
20260509105510 46 23 0.0 0.0 0.00 0.00 0.00 92 1014.4
20260509105308 46 23 0.0 0.0 0.00 0.00 0.00 92 1014.4
20260509105105 46 23 0.0 0.0 0.00 0.00 0.00 92 1014.3
20260509104701 46 23 0.0 0.0 0.00 0.00 0.00 92 1014.3
20260509104501 46 23 0.0 0.0 0.00 0.00 0.00 92 1014.3
20260509104301 46 23 0.0 0.0 0.00 0.00 0.00 92 1014.2
20260509104108 46 23 0.0 0.0 0.00 0.00 0.00 92 1014.2
20260509103859 46 23 0.0 0.0 0.00 0.00 0.00 92 1014.1
20260509103657 46 23 0.0 0.0 0.00 0.00 0.00 92 1014.0
20260509103455 46 23 0.0 0.0 0.00 0.00 0.00 92 1013.9
20260509103257 46 23 0.0 0.0 0.00 0.00 0.00 92 1013.8
20260509103054 46 22 0.0 0.0 0.00 0.00 0.00 92 1013.8
20260509102851 46 23 0.0 0.0 0.00 0.00 0.00 92 1013.8
20260509102651 46 23 0.0 0.0 0.00 0.00 0.00 92 1013.8
20260509102447 46 23 0.0 0.0 0.00 0.00 0.00 92 1013.8
20260509102248 46 23 0.0 0.0 0.00 0.00 0.00 92 1013.8
20260509102045 46 23 0.0 0.0 0.00 0.00 0.00 92 1013.8
20260509101845 46 23 0.0 0.0 0.00 0.00 0.00 92 1013.8
20260509101644 46 23 0.0 0.0 0.00 0.00 0.00 92 1013.9
20260509101443 47 23 0.0 0.0 0.00 0.00 0.00 92 1014.0
20260509101245 47 23 0.0 0.0 0.00 0.00 0.00 92 1014.0
20260509101043 47 23 0.0 0.0 0.00 0.00 0.00 92 1014.0
20260509100843 47 23 0.0 0.0 0.00 0.00 0.00 92 1013.9
20260509100643 47 23 0.0 0.0 0.00 0.00 0.00 92 1014.0
20260509100443 47 23 0.0 0.0 0.00 0.00 0.00 92 1013.9
20260509100243 47 23 0.0 0.0 0.00 0.00 0.00 92 1013.9
20260509100044 47 23 0.0 0.0 0.00 0.00 0.00 92 1013.9
20260509095843 47 23 0.0 0.0 0.00 0.00 0.00 92 1013.9
20260509095641 47 23 0.0 0.0 0.00 0.00 0.00 92 1013.9
20260509095238 47 23 0.0 0.0 0.00 0.00 0.00 92 1013.8
20260509095040 47 23 0.0 0.0 0.00 0.00 0.00 92 1013.8
20260509094637 47 23 0.0 0.0 0.00 0.00 0.00 92 1013.8
20260509094437 47 23 0.0 0.0 0.00 0.00 0.00 92 1013.8
20260509094237 47 23 0.0 0.0 0.00 0.00 0.00 92 1013.9
20260509094037 47 23 0.0 0.0 0.00 0.00 0.00 92 1013.8
20260509093637 47 23 0.0 0.0 0.00 0.00 0.00 92 1013.9
20260509093438 47 23 0.0 0.0 0.00 0.00 0.00 92 1014.0
20260509093238 47 23 0.0 0.0 0.00 0.00 0.00 92 1014.1
20260509093039 47 23 0.0 0.0 0.00 0.00 0.00 92 1014.1
20260509092838 47 23 0.0 0.0 0.00 0.00 0.00 92 1014.1
20260509092635 47 23 0.0 0.0 0.00 0.00 0.00 92 1014.1
20260509092436 47 23 0.0 0.0 0.00 0.00 0.00 92 1014.1
20260509092235 47 23 0.0 0.0 0.00 0.00 0.00 92 1014.2
20260509092036 47 23 0.0 0.0 0.00 0.00 0.00 92 1014.2
20260509091837 47 23 0.0 0.0 0.00 0.00 0.00 92 1014.2
20260509091435 47 22 0.0 0.0 0.00 0.00 0.00 91 1014.2
20260509091235 47 23 0.0 0.0 0.00 0.00 0.00 91 1014.1
20260509091035 47 22 0.0 0.0 0.00 0.00 0.00 91 1014.0
20260509090833 47 23 0.0 0.0 0.00 0.00 0.00 92 1014.0
20260509090633 47 23 0.0 0.0 0.00 0.00 0.00 92 1014.0
20260509090434 47 23 0.0 0.0 0.00 0.00 0.00 91 1014.0
20260509090231 47 23 0.0 0.0 0.00 0.00 0.00 92 1014.1
20260509090032 48 23 0.0 0.0 0.00 0.00 0.00 92 1014.1
20260509085830 48 23 0.0 0.0 0.00 0.00 0.00 92 1014.2
20260509085631 48 23 0.0 0.0 0.00 0.00 0.00 92 1014.2
20260509085431 48 23 0.0 0.0 0.00 0.00 0.00 92 1014.2
20260509085231 48 22 0.0 0.0 0.00 0.00 0.00 91 1014.2
20260509085032 48 23 0.0 0.0 0.00 0.00 0.00 91 1014.3
20260509084830 48 23 0.0 0.0 0.00 0.00 0.00 91 1014.4
20260509084629 48 22 0.0 0.0 0.00 0.00 0.00 91 1014.4
20260509084428 48 23 0.0 0.0 0.00 0.00 0.00 91 1014.4
20260509084226 48 23 0.0 0.0 0.00 0.00 0.00 91 1014.4
20260509084025 48 23 0.0 0.0 0.00 0.00 0.00 91 1014.5
20260509083826 48 23 0.0 0.0 0.00 0.00 0.00 91 1014.5
20260509083625 48 23 0.0 0.0 0.00 0.00 0.00 91 1014.5
20260509083021 48 22 0.0 0.0 0.00 0.00 0.00 91 1014.6
20260509082822 48 23 0.0 0.0 0.00 0.00 0.00 91 1014.6
20260509082622 48 23 0.0 0.0 0.00 0.00 0.00 91 1014.6
20260509082423 48 23 0.0 0.0 0.00 0.00 0.00 91 1014.6
20260509082222 48 22 0.0 0.0 0.00 0.00 0.00 91 1014.6
20260509081822 48 23 0.0 0.0 0.00 0.00 0.00 91 1014.6
20260509081621 48 23 0.0 0.0 0.00 0.00 0.00 91 1014.6
20260509081422 48 23 0.0 0.0 0.00 0.00 0.00 91 1014.6
20260509081220 48 23 0.0 0.0 0.00 0.00 0.00 91 1014.6
20260509080819 48 23 0.0 0.0 0.00 0.00 0.00 91 1014.6
20260509080617 48 22 0.0 0.0 0.00 0.00 0.00 91 1014.7
20260509080415 48 23 0.0 0.0 0.00 0.00 0.00 91 1014.7
20260509080215 49 23 0.0 0.0 0.00 0.00 0.00 91 1014.7
20260509080014 49 23 0.0 0.0 0.00 0.00 0.00 91 1014.7
20260509075813 49 23 0.0 0.0 0.00 0.00 0.00 91 1014.7
20260509075614 49 23 0.0 0.0 0.00 0.00 0.00 91 1014.6
20260509075413 49 23 0.0 0.0 0.00 0.00 0.00 91 1014.6
20260509075210 49 23 0.0 0.0 0.00 0.00 0.00 91 1014.6
20260509075010 49 23 0.0 0.0 0.00 0.00 0.00 91 1014.6
20260509074810 49 23 0.0 0.0 0.00 0.00 0.00 91 1014.6
20260509074608 49 23 0.0 0.0 0.00 0.00 0.00 91 1014.6
20260509074405 49 23 0.0 0.0 0.00 0.00 0.00 91 1014.6
20260509074004 49 23 0.0 0.0 0.00 0.00 0.00 91 1014.6
20260509073805 49 23 0.0 0.0 0.00 0.00 0.00 91 1014.6
20260509073601 49 23 0.0 0.0 0.00 0.00 0.00 91 1014.6
20260509073400 49 23 0.0 0.0 0.00 0.00 0.00 91 1014.7
20260509073158 49 23 0.0 0.0 0.00 0.00 0.00 91 1014.6
20260509072958 49 22 0.0 0.0 0.00 0.00 0.00 91 1014.6
20260509072758 49 23 0.0 0.0 0.00 0.00 0.00 91 1014.6
20260509072559 49 23 0.0 0.0 0.00 0.00 0.00 91 1014.5
20260509072359 49 23 0.0 0.0 0.00 0.00 0.00 91 1014.5
20260509072201 49 23 0.0 0.0 0.00 0.00 0.00 91 1014.5
20260509071958 49 23 0.0 0.0 0.00 0.00 0.00 91 1014.6
20260509071757 49 23 0.0 0.0 0.00 0.00 0.00 91 1014.7
20260509071555 49 23 0.0 0.0 0.00 0.00 0.00 91 1014.8
20260509071354 49 23 0.0 0.0 0.00 0.00 0.00 91 1014.8
20260509071153 49 23 0.0 0.0 0.00 0.00 0.00 91 1014.8
20260509070750 49 23 0.0 0.0 0.00 0.00 0.00 91 1014.6
20260509070351 49 23 0.0 0.0 0.00 0.00 0.00 91 1014.6
20260509070151 49 23 0.0 0.0 0.00 0.00 0.00 91 1014.6
20260509065948 49 23 0.0 0.0 0.00 0.00 0.00 91 1014.6
20260509065748 50 23 0.0 0.0 0.00 0.00 0.00 91 1014.6
20260509065550 49 23 0.0 0.0 0.00 0.00 0.00 91 1014.6
20260509065347 49 23 0.0 0.0 0.00 0.00 0.00 91 1014.6
20260509065145 50 23 0.0 0.0 0.00 0.00 0.00 91 1014.6
20260509064943 50 23 0.0 0.0 0.00 0.00 0.00 91 1014.6
20260509064743 50 23 0.0 0.0 0.00 0.00 0.00 91 1014.7
20260509064540 50 23 0.0 0.0 0.00 0.00 0.00 91 1014.7
20260509064142 50 23 0.0 0.0 0.00 0.00 0.00 91 1014.8
20260509063942 50 22 0.0 0.0 0.00 0.00 0.00 91 1014.9
20260509063739 50 23 0.0 0.0 0.00 0.00 0.00 91 1014.9
20260509063539 50 23 0.0 0.0 0.00 0.00 0.00 91 1014.9
20260509063340 50 23 0.0 0.0 0.00 0.00 0.00 91 1015.0
20260509062934 50 22 0.0 0.0 0.00 0.00 0.00 91 1015.1
20260509062734 50 23 0.0 0.0 0.00 0.00 0.00 91 1015.1
20260509062536 50 23 0.0 0.0 0.00 0.00 0.00 91 1015.2
20260509062333 50 23 0.0 0.0 0.00 0.00 0.00 91 1015.2
20260509062134 50 23 0.0 0.0 0.00 0.00 0.00 91 1015.2
20260509061527 50 23 0.0 0.0 0.00 0.00 0.00 91 1015.3
20260509061326 50 23 0.0 0.0 0.00 0.00 0.00 91 1015.4
20260509061124 50 23 0.0 0.0 0.00 0.00 0.00 91 1015.4
20260509060925 50 23 0.0 0.0 0.00 0.00 0.00 91 1015.5
20260509060525 50 23 0.0 0.0 0.00 0.00 0.00 91 1015.5
20260509060323 50 23 0.0 0.0 0.00 0.00 0.00 91 1015.5
20260509055723 50 23 0.0 0.0 0.00 0.00 0.00 91 1015.5
20260509055522 51 23 0.0 0.0 0.00 0.00 0.00 91 1015.6
20260509055322 51 23 0.0 0.0 0.00 0.00 0.00 91 1015.6
20260509055122 51 23 0.0 0.0 0.00 0.00 0.00 91 1015.6
20260509054918 51 23 0.0 0.0 0.00 0.00 0.00 91 1015.6
20260509054716 51 23 0.0 0.0 0.00 0.00 0.00 91 1015.6
20260509054516 51 23 0.0 0.0 0.00 0.00 0.00 91 1015.7
20260509054319 51 23 0.0 0.0 0.00 0.00 0.00 91 1015.7
20260509054116 51 22 0.0 0.0 0.00 0.00 0.00 91 1015.8
20260509053916 51 23 0.0 0.0 0.00 0.00 0.00 91 1015.7
20260509053717 51 23 0.0 0.0 0.00 0.00 0.00 90 1015.7
20260509053515 51 23 0.0 0.0 0.00 0.00 0.00 90 1015.7
20260509053314 51 23 0.0 0.0 0.00 0.00 0.00 90 1015.8
20260509052716 51 22 0.0 0.0 0.00 0.00 0.00 90 1015.9
20260509052516 51 22 0.0 0.0 0.00 0.00 0.00 90 1015.9
20260509051914 51 22 0.0 0.0 0.00 0.00 0.00 90 1015.9
20260509051714 51 22 0.0 0.0 0.00 0.00 0.00 90 1015.9
20260509051512 51 22 0.0 0.0 0.00 0.00 0.00 90 1016.2
20260509051315 51 22 0.0 0.0 0.00 0.00 0.00 90 1016.2
20260509051113 51 22 0.0 0.0 0.00 0.00 0.00 90 1016.1
20260509050912 51 22 0.0 0.0 0.00 0.00 0.00 90 1016.1
20260509050712 51 22 0.0 0.0 0.00 0.00 0.00 90 1016.2
20260509050513 51 22 0.0 0.0 0.00 0.00 0.00 90 1016.2
20260509050309 51 22 0.0 0.0 0.00 0.00 0.00 90 1016.2
20260509050108 51 22 0.0 2.0 0.00 0.00 0.00 90 1016.2
20260509045909 51 22 0.0 2.0 0.00 0.00 0.00 90 1016.3
20260509045711 52 22 0.0 2.0 0.00 0.00 0.00 90 1016.4
20260509045508 52 22 0.0 2.0 0.00 0.00 0.00 90 1016.4
20260509045309 52 22 0.0 2.0 0.00 0.00 0.00 90 1016.4
20260509045106 52 22 0.0 2.0 0.00 0.00 0.00 90 1016.4
20260509044906 52 19 0.0 0.0 0.00 0.00 0.00 90 1016.3
20260509044307 52 19 0.0 0.0 0.00 0.00 0.00 89 1016.1
20260509044108 52 19 0.0 0.0 0.00 0.00 0.00 89 1016.1
20260509043906 52 19 0.0 0.0 0.00 0.00 0.00 89 1016.1
20260509043706 52 19 0.0 0.0 0.00 0.00 0.00 89 1016.1
20260509043506 52 19 0.0 0.0 0.00 0.00 0.00 89 1016.1
20260509043306 52 19 0.0 0.0 0.00 0.00 0.00 89 1015.9
20260509043107 52 19 0.0 0.0 0.00 0.00 0.00 90 1015.9
20260509042908 52 19 0.0 0.0 0.00 0.00 0.00 90 1015.9
20260509042706 52 19 0.0 0.0 0.00 0.00 0.00 90 1015.9
20260509042504 52 19 0.0 0.0 0.00 0.00 0.00 90 1015.9
20260509042307 52 19 0.0 0.0 0.00 0.00 0.00 89 1015.9
20260509042105 52 19 0.0 0.0 0.00 0.00 0.00 89 1015.9
20260509041705 52 19 0.0 0.0 0.00 0.00 0.00 89 1015.9
20260509041505 52 19 0.0 0.0 0.00 0.00 0.00 89 1015.8
20260509041304 52 19 0.0 0.0 0.00 0.00 0.00 89 1015.8
20260509040906 52 19 0.0 0.0 0.00 0.00 0.00 89 1015.9
20260509040706 52 19 0.0 0.0 0.00 0.00 0.00 89 1015.9
20260509040505 52 19 0.0 0.0 0.00 0.00 0.00 89 1015.8
20260509040305 52 19 0.0 0.0 0.00 0.00 0.00 89 1015.8
20260509040107 52 19 0.0 0.0 0.00 0.00 0.00 89 1015.8
20260509035706 52 19 0.0 0.0 0.00 0.00 0.00 89 1016.1
20260509035502 52 19 0.0 0.0 0.00 0.00 0.00 89 1016.1
20260509035102 53 19 0.0 0.0 0.00 0.00 0.00 89 1015.9
20260509034702 53 19 0.0 0.0 0.00 0.00 0.00 89 1015.8
20260509034500 53 19 0.0 0.0 0.00 0.00 0.00 89 1015.8
20260509034258 53 19 0.0 0.0 0.00 0.00 0.00 89 1015.9
20260509033854 53 19 0.0 0.0 0.00 0.00 0.00 89 1015.8
20260509033654 53 19 0.0 0.0 0.00 0.00 0.00 89 1015.9
20260509033253 53 19 0.0 0.0 0.00 0.00 0.00 88 1015.8
20260509033051 53 19 0.0 0.0 0.00 0.00 0.00 89 1015.9
20260509032849 53 19 0.0 0.0 0.00 0.00 0.00 89 1016.1
20260509032647 53 19 0.0 0.0 0.00 0.00 0.00 88 1016.1
20260509032444 53 19 0.0 0.0 0.00 0.00 0.00 88 1016.2
20260509032244 53 19 0.0 0.0 0.00 0.00 0.00 88 1016.2
20260509032042 53 19 0.0 0.0 0.00 0.00 0.00 88 1016.2
20260509031641 53 19 0.0 0.0 0.00 0.00 0.00 88 1016.1
20260509031439 53 19 0.0 0.0 0.00 0.00 0.00 88 1016.1
20260509031038 53 19 0.0 0.0 0.00 0.00 0.00 88 1016.1
20260509030838 53 19 0.0 0.0 0.00 0.00 0.00 88 1016.2
20260509030436 53 19 0.0 0.0 0.00 0.00 0.00 88 1016.2
20260509030235 54 19 0.0 0.0 0.00 0.00 0.00 88 1016.1
20260509030031 54 19 0.0 0.0 0.00 0.00 0.00 88 1016.1
20260509025832 54 19 0.0 0.0 0.00 0.00 0.00 88 1016.2
20260509025431 54 19 0.0 0.0 0.00 0.00 0.00 88 1016.2
20260509025228 54 19 0.0 0.0 0.00 0.00 0.00 88 1016.3
20260509025026 54 19 0.0 0.0 0.00 0.00 0.00 87 1016.3
20260509024826 54 19 0.0 0.0 0.00 0.00 0.00 87 1016.3
20260509024625 54 19 0.0 0.0 0.00 0.00 0.00 87 1016.3
20260509024220 54 19 0.0 0.0 0.00 0.00 0.00 87 1016.5
20260509024022 54 19 0.0 0.0 0.00 0.00 0.00 87 1016.5
20260509023819 54 19 0.0 0.0 0.00 0.00 0.00 87 1016.5
20260509023617 54 19 0.0 0.0 0.00 0.00 0.00 87 1016.5
20260509023416 54 19 0.0 0.0 0.00 0.00 0.00 87 1016.6
20260509023015 54 19 0.0 0.0 0.00 0.00 0.00 87 1016.5
20260509022613 54 19 0.0 0.0 0.00 0.00 0.00 86 1016.6
20260509022414 54 19 0.0 0.0 0.00 0.00 0.00 86 1016.6
20260509022012 55 19 0.0 2.0 0.00 0.00 0.00 87 1016.6
20260509021813 55 19 0.0 2.0 0.00 0.00 0.00 86 1016.6
20260509021609 55 19 0.0 2.0 0.00 0.00 0.00 86 1016.5
20260509021210 55 19 0.0 2.0 0.00 0.00 0.00 86 1016.5
20260509021012 55 319 0.0 1.0 0.00 0.00 0.00 86 1016.4
20260509020607 55 315 0.0 0.0 0.00 0.00 0.00 86 1016.5
20260509020404 55 315 0.0 0.0 0.00 0.00 0.00 85 1016.4
20260509020202 55 315 0.0 0.0 0.00 0.00 0.00 85 1016.4
20260509015804 55 315 0.0 0.0 0.00 0.00 0.00 85 1016.4
20260509015604 56 315 0.0 0.0 0.00 0.00 0.00 85 1016.4
20260509015403 56 315 0.0 0.0 0.00 0.00 0.00 85 1016.4
20260509015204 56 315 0.0 0.0 0.00 0.00 0.00 85 1016.3
20260509015004 56 315 0.0 0.0 0.00 0.00 0.00 85 1016.4
20260509014803 56 315 0.0 0.0 0.00 0.00 0.00 84 1016.4
20260509014602 56 315 0.0 0.0 0.00 0.00 0.00 84 1016.4
20260509014400 56 315 0.0 0.0 0.00 0.00 0.00 84 1016.4
20260509014201 56 315 0.0 0.0 0.00 0.00 0.00 84 1016.4
20260509013800 56 315 0.0 0.0 0.00 0.00 0.00 83 1016.4
20260509013601 56 315 0.0 0.0 0.00 0.00 0.00 83 1016.4
20260509013158 57 315 0.0 0.0 0.00 0.00 0.00 82 1016.3
20260509013000 57 315 0.0 0.0 0.00 0.00 0.00 82 1016.4
20260509012758 57 315 0.0 0.0 0.00 0.00 0.00 82 1016.3
20260509012600 57 315 0.0 0.0 0.00 0.00 0.00 81 1016.3
20260509012359 57 315 0.0 0.0 0.00 0.00 0.00 81 1016.2
20260509012158 57 315 0.0 0.0 0.00 0.00 0.00 81 1016.3
20260509011957 57 315 0.0 0.0 0.00 0.00 0.00 81 1016.3
20260509011558 57 315 0.0 0.0 0.00 0.00 0.00 80 1016.2
20260509010956 58 315 0.0 0.0 0.00 0.00 0.00 79 1015.9
20260509010557 58 315 0.0 0.0 0.00 0.00 0.00 78 1016.1
20260509010357 58 315 0.0 0.0 0.00 0.00 0.00 78 1016.2
20260509010157 58 315 0.0 0.0 0.00 0.00 0.00 78 1016.1
20260509005758 58 315 0.0 0.0 0.00 0.00 0.00 78 1015.9
20260509005558 59 315 0.0 0.0 0.00 0.00 0.00 77 1015.8
20260509005158 59 315 0.0 0.0 0.00 0.00 0.00 76 1015.7
20260509004957 59 315 0.0 0.0 0.00 0.00 0.00 75 1015.7
20260509004556 59 315 0.0 0.0 0.00 0.00 0.00 75 1015.7
20260509004356 59 315 0.0 0.0 0.00 0.00 0.00 75 1015.7
20260509004159 60 315 0.0 0.0 0.00 0.00 0.00 74 1015.7
20260509003956 60 315 0.0 0.0 0.00 0.00 0.00 74 1015.6
20260509003756 60 315 0.0 0.0 0.00 0.00 0.00 73 1015.6
20260509002957 60 315 0.0 1.0 0.00 0.00 0.00 72 1015.7
20260509002758 61 315 0.0 1.0 0.00 0.00 0.00 71 1015.6
20260509002556 61 315 0.0 1.0 0.00 0.00 0.00 71 1015.5
20260509002356 61 315 0.0 1.0 0.00 0.00 0.00 70 1015.5
20260509002157 61 315 0.0 1.0 0.00 0.00 0.00 70 1015.5
20260509001957 61 315 0.0 0.0 0.00 0.00 0.00 70 1015.5
20260509001557 62 315 0.0 0.0 0.00 0.00 0.00 68 1015.4
20260509001358 62 315 0.0 0.0 0.00 0.00 0.00 68 1015.5
20260509001158 62 315 0.0 0.0 0.00 0.00 0.00 68 1015.5
20260509000957 62 315 0.0 0.0 0.00 0.00 0.00 67 1015.6
20260509000758 62 315 0.0 0.0 0.00 0.00 0.00 67 1015.5
20260509000559 62 315 0.0 0.0 0.00 0.00 0.00 66 1015.5
20260509000358 62 315 0.0 0.0 0.00 0.00 0.00 67 1015.6
20260509000157 63 315 0.0 0.0 0.00 0.00 0.00 66 1015.6
20260508235957 63 315 0.0 0.0 0.00 0.00 0.00 66 1015.6
20260508235757 63 315 0.0 0.0 0.00 0.00 0.00 64 1015.5
20260508235358 63 315 0.0 0.0 0.00 0.00 0.00 64 1015.6
20260508235157 63 315 0.0 0.0 0.00 0.00 0.00 64 1015.7
20260508234957 64 315 0.0 0.0 0.00 0.00 0.00 64 1015.7
20260508234757 64 315 0.0 0.0 0.00 0.00 0.00 63 1015.7
20260508234557 64 315 0.0 0.0 0.00 0.00 0.00 64 1015.7
20260508234356 64 315 0.0 0.0 0.00 0.00 0.00 62 1015.6
20260508234156 64 315 0.0 0.0 0.00 0.00 0.00 63 1015.5
20260508233956 64 315 0.0 0.0 0.00 0.00 0.00 62 1015.6
20260508233757 64 315 0.0 0.0 0.00 0.00 0.00 61 1015.7
20260508233556 64 315 0.0 0.0 0.00 0.00 0.00 62 1015.6
20260508233357 64 315 0.0 0.0 0.00 0.00 0.00 62 1015.6
20260508233156 65 315 0.0 0.0 0.00 0.00 0.00 62 1015.5
20260508232956 65 315 0.0 1.0 0.00 0.00 0.00 62 1015.4
20260508232758 65 315 0.0 1.0 0.00 0.00 0.00 63 1015.5
20260508232556 65 315 0.0 1.0 0.00 0.00 0.00 64 1015.5
20260508232358 65 315 0.0 1.0 0.00 0.00 0.00 65 1015.3
20260508232157 65 315 0.0 1.0 0.00 0.00 0.00 65 1015.3
20260508231754 65 315 0.0 1.0 0.00 0.00 0.00 66 1015.4
20260508231552 66 315 0.0 1.0 0.00 0.00 0.00 63 1015.4
20260508231352 66 315 0.0 1.0 0.00 0.00 0.00 63 1015.4
20260508231152 66 315 0.0 1.0 0.00 0.00 0.00 61 1015.3
20260508230952 66 315 0.0 1.0 0.00 0.00 0.00 62 1015.2
20260508230753 66 315 0.0 1.0 0.00 0.00 0.00 59 1015.2
20260508230552 66 315 0.0 2.0 0.00 0.00 0.00 60 1015.2
20260508230354 66 315 0.0 2.0 0.00 0.00 0.00 61 1015.1
20260508230152 66 315 0.0 2.0 0.00 0.00 0.00 60 1015.2
20260508225952 66 315 0.0 2.0 0.00 0.00 0.00 57 1015.2
20260508225752 66 315 0.0 2.0 0.00 0.00 0.00 61 1015.2
20260508225551 66 146 0.0 2.0 0.00 0.00 0.00 63 1015.1
20260508225352 67 146 0.0 2.0 0.00 0.00 0.00 56 1015.1
20260508225152 67 146 0.0 2.0 0.00 0.00 0.00 55 1015.1
20260508224949 67 146 0.0 2.0 0.00 0.00 0.00 58 1015.2
20260508224750 67 146 0.0 2.0 0.00 0.00 0.00 61 1015.3
20260508224549 67 79 0.0 2.0 0.00 0.00 0.00 63 1015.3
20260508224147 67 78 1.0 2.0 0.00 0.00 0.00 59 1015.3
20260508223945 67 78 0.0 2.0 0.00 0.00 0.00 60 1015.3
20260508223747 67 78 0.0 2.0 0.00 0.00 0.00 61 1015.3
20260508223545 67 77 1.0 2.0 0.00 0.00 0.00 65 1015.3
20260508223344 67 77 0.0 2.0 0.00 0.00 0.00 65 1015.2
20260508223146 67 77 0.0 2.0 0.00 0.00 0.00 62 1015.2
20260508222945 67 78 1.0 2.0 0.00 0.00 0.00 57 1015.2
20260508222742 67 78 1.0 2.0 0.00 0.00 0.00 59 1015.2
20260508222543 67 78 1.0 2.0 0.00 0.00 0.00 62 1015.2
20260508222343 67 77 1.0 2.0 0.00 0.00 0.00 64 1015.0
20260508221944 67 74 0.0 2.0 0.00 0.00 0.00 64 1015.1
20260508221539 67 73 0.0 2.0 0.00 0.00 0.00 64 1014.9
20260508221340 67 73 0.0 2.0 0.00 0.00 0.00 58 1014.8
20260508221138 67 74 0.0 2.0 0.00 0.00 0.00 60 1014.9
20260508220938 68 74 0.0 2.0 0.00 0.00 0.00 61 1015.1
20260508220740 68 73 0.0 2.0 0.00 0.00 0.00 63 1015.1
20260508220538 68 73 0.0 1.0 0.00 0.00 0.00 63 1015.1
20260508220338 68 74 0.0 1.0 0.00 0.00 0.00 65 1015.1
20260508220138 68 73 0.0 1.0 0.00 0.00 0.00 65 1015.1
20260508215936 68 73 0.0 1.0 0.00 0.00 0.00 60 1015.1
20260508215535 68 73 0.0 1.0 0.00 0.00 0.00 56 1015.1
20260508215335 68 74 0.0 1.0 0.00 0.00 0.00 54 1015.1
20260508215135 68 74 0.0 2.0 0.00 0.00 0.00 56 1015.1
20260508214933 68 73 0.0 2.0 0.00 0.00 0.00 55 1015.1
20260508214732 68 74 0.0 2.0 0.00 0.00 0.00 57 1015.1
20260508214130 68 73 0.0 2.0 0.00 0.00 0.00 51 1015.0
20260508213930 68 73 0.0 2.0 0.00 0.00 0.00 52 1014.9
20260508213730 68 73 0.0 2.0 0.00 0.00 0.00 49 1015.0
20260508213526 68 73 0.0 2.0 0.00 0.00 0.00 49 1015.1
20260508213324 68 73 1.0 1.0 0.00 0.00 0.00 49 1015.0
20260508213125 68 73 1.0 2.0 0.00 0.00 0.00 46 1014.9
20260508212921 68 73 1.0 2.0 0.00 0.00 0.00 47 1014.9
20260508212522 68 73 0.0 2.0 0.00 0.00 0.00 51 1015.0
20260508212325 68 73 0.0 2.0 0.00 0.00 0.00 48 1015.1
20260508212123 68 73 0.0 2.0 0.00 0.00 0.00 48 1015.1
20260508211923 68 73 0.0 2.0 0.00 0.00 0.00 50 1015.1
20260508211720 68 73 0.0 2.0 0.00 0.00 0.00 48 1015.1
20260508211521 68 73 0.0 2.0 0.00 0.00 0.00 53 1015.2
20260508211318 68 73 0.0 2.0 0.00 0.00 0.00 50 1015.2
20260508211117 68 73 0.0 2.0 0.00 0.00 0.00 46 1015.1
20260508210916 69 73 1.0 2.0 0.00 0.00 0.00 49 1015.2
20260508210714 69 73 1.0 2.0 0.00 0.00 0.00 44 1015.2
20260508210514 69 73 1.0 2.0 0.00 0.00 0.00 44 1015.2
20260508210117 69 73 1.0 2.0 0.00 0.00 0.00 48 1015.2
20260508205714 69 73 1.0 2.0 0.00 0.00 0.00 54 1015.3
20260508205512 69 73 1.0 2.0 0.00 0.00 0.00 48 1015.3
20260508205110 69 72 1.0 2.0 0.00 0.00 0.00 47 1015.4
20260508204910 69 72 1.0 2.0 0.00 0.00 0.00 47 1015.4
20260508204708 69 72 1.0 2.0 0.00 0.00 0.00 47 1015.5
20260508204508 69 72 1.0 2.0 0.00 0.00 0.00 50 1015.6
20260508204304 69 72 1.0 2.0 0.00 0.00 0.00 49 1015.6
20260508204106 69 66 1.0 2.0 0.00 0.00 0.00 46 1015.6
20260508203906 69 87 1.0 3.0 0.00 0.00 0.00 44 1015.6
20260508203702 69 95 1.0 3.0 0.00 0.00 0.00 43 1015.7
20260508203503 69 96 1.0 3.0 0.00 0.00 0.00 42 1015.8
20260508203302 69 95 1.0 3.0 0.00 0.00 0.00 42 1015.8
20260508202902 69 83 1.0 5.0 0.00 0.00 0.00 42 1015.7
20260508202704 69 83 1.0 5.0 0.00 0.00 0.00 41 1015.7
20260508202503 69 82 1.0 5.0 0.00 0.00 0.00 42 1015.7
20260508202306 69 81 1.0 5.0 0.00 0.00 0.00 42 1015.7
20260508202103 69 81 1.0 5.0 0.00 0.00 0.00 44 1015.7
20260508201901 69 84 1.0 5.0 0.00 0.00 0.00 42 1015.7
20260508201700 69 78 1.0 5.0 0.00 0.00 0.00 44 1015.6
20260508201501 69 69 1.0 3.0 0.00 0.00 0.00 46 1015.6
20260508201258 69 69 1.0 3.0 0.00 0.00 0.00 44 1015.6
20260508201057 69 67 1.0 3.0 0.00 0.00 0.00 43 1015.6
20260508200856 69 67 1.0 3.0 0.00 0.00 0.00 44 1015.6
20260508200656 69 186 1.0 3.0 0.00 0.00 0.00 42 1015.6
20260508200256 69 81 1.0 2.0 0.00 0.00 0.00 43 1015.5
20260508200057 69 80 1.0 3.0 0.00 0.00 0.00 44 1015.6
20260508195856 69 80 1.0 3.0 0.00 0.00 0.00 46 1015.6
20260508195656 69 80 1.0 3.0 0.00 0.00 0.00 43 1015.7
20260508195452 69 80 1.0 3.0 0.00 0.00 0.00 44 1015.7
20260508195254 69 80 1.0 3.0 0.00 0.00 0.00 44 1015.8
20260508195053 69 80 1.0 3.0 0.00 0.00 0.00 42 1015.8
20260508194650 69 76 1.0 3.0 0.00 0.00 0.00 39 1015.9
20260508194449 69 90 1.0 2.0 0.00 0.00 0.00 40 1016.1
20260508194246 69 92 1.0 2.0 0.00 0.00 0.00 39 1016.1
20260508193844 69 91 1.0 2.0 0.00 0.00 0.00 42 1016.2
20260508193238 69 92 1.0 3.0 0.00 0.00 0.00 41 1016.2
20260508193039 68 92 1.0 3.0 0.00 0.00 0.00 42 1016.3
20260508192838 68 89 1.0 3.0 0.00 0.00 0.00 45 1016.2
20260508192638 68 90 1.0 3.0 0.00 0.00 0.00 45 1016.2
20260508192240 68 90 1.0 3.0 0.00 0.00 0.00 43 1016.2
20260508192040 68 88 1.0 3.0 0.00 0.00 0.00 44 1016.2
20260508191840 68 88 1.0 3.0 0.00 0.00 0.00 47 1016.3
20260508191639 68 102 1.0 3.0 0.00 0.00 0.00 47 1016.3
20260508191039 68 47 2.0 3.0 0.00 0.00 0.00 47 1016.5
20260508190236 68 98 1.0 3.0 0.00 0.00 0.00 44 1016.6
20260508190037 68 97 1.0 3.0 0.00 0.00 0.00 43 1016.6
20260508185834 68 69 1.0 4.0 0.00 0.00 0.00 44 1016.6
20260508185634 68 68 1.0 4.0 0.00 0.00 0.00 42 1016.6
20260508185235 68 67 2.0 4.0 0.00 0.00 0.00 46 1016.7
20260508185031 68 65 2.0 4.0 0.00 0.00 0.00 51 1016.7
20260508184630 68 61 1.0 4.0 0.00 0.00 0.00 48 1016.7
20260508184431 68 63 2.0 4.0 0.00 0.00 0.00 48 1016.8
20260508183630 68 74 1.0 3.0 0.00 0.00 0.00 46 1016.9
20260508183430 68 75 1.0 3.0 0.00 0.00 0.00 49 1016.9
20260508183026 68 78 1.0 3.0 0.00 0.00 0.00 42 1016.9
20260508182825 68 78 1.0 3.0 0.00 0.00 0.00 44 1017.0
20260508182626 68 78 2.0 3.0 0.00 0.00 0.00 43 1017.0
20260508182427 68 78 2.0 4.0 0.00 0.00 0.00 45 1017.0
20260508182226 68 78 2.0 5.0 0.00 0.00 0.00 44 1017.1
20260508182022 68 78 2.0 5.0 0.00 0.00 0.00 43 1017.1
20260508181822 67 78 2.0 5.0 0.00 0.00 0.00 47 1017.1
20260508181622 67 78 2.0 5.0 0.00 0.00 0.00 50 1017.1
20260508181424 67 79 1.0 5.0 0.00 0.00 0.00 49 1017.1
20260508180618 67 117 1.0 3.0 0.00 0.00 0.00 50 1017.3
20260508180215 67 117 1.0 4.0 0.00 0.00 0.00 47 1017.4
20260508180017 67 117 1.0 4.0 0.00 0.00 0.00 46 1017.4
20260508175816 67 113 1.0 4.0 0.00 0.00 0.00 47 1017.5
20260508175615 67 113 1.0 4.0 0.00 0.00 0.00 48 1017.5
20260508175414 67 338 1.0 4.0 0.00 0.00 0.00 50 1017.4
20260508175213 67 38 2.0 4.0 0.00 0.00 0.00 50 1017.5
20260508175014 67 38 2.0 4.0 0.00 0.00 0.00 47 1017.5
20260508174813 67 38 2.0 4.0 0.00 0.00 0.00 46 1017.6
20260508174613 67 89 2.0 5.0 0.00 0.00 0.00 51 1017.5
20260508174413 67 150 2.0 5.0 0.00 0.00 0.00 45 1017.5
20260508174211 67 69 2.0 5.0 0.00 0.00 0.00 47 1017.5
20260508174009 67 272 1.0 5.0 0.00 0.00 0.00 46 1017.6
20260508173809 67 271 1.0 5.0 0.00 0.00 0.00 44 1017.6
20260508173606 67 95 1.0 5.0 0.00 0.00 0.00 49 1017.6
20260508173406 67 96 1.0 5.0 0.00 0.00 0.00 49 1017.5
20260508173208 66 104 1.0 5.0 0.00 0.00 0.00 50 1017.6
20260508173004 66 10 1.0 3.0 0.00 0.00 0.00 49 1017.6
20260508172804 66 10 1.0 5.0 0.00 0.00 0.00 47 1017.6
20260508172603 66 10 2.0 5.0 0.00 0.00 0.00 46 1017.6
20260508172402 66 10 2.0 5.0 0.00 0.00 0.00 48 1017.6
20260508172203 66 11 2.0 5.0 0.00 0.00 0.00 47 1017.6
20260508172002 66 333 2.0 5.0 0.00 0.00 0.00 49 1017.6
20260508171802 66 325 3.0 5.0 0.00 0.00 0.00 48 1017.6
20260508171602 66 344 3.0 5.0 0.00 0.00 0.00 51 1017.7
20260508171403 66 328 2.0 5.0 0.00 0.00 0.00 49 1017.6
20260508171202 66 315 2.0 5.0 0.00 0.00 0.00 48 1017.7
20260508171000 66 315 2.0 5.0 0.00 0.00 0.00 49 1017.8
20260508170801 66 313 2.0 4.0 0.00 0.00 0.00 47 1017.8
20260508170601 65 355 1.0 3.0 0.00 0.00 0.00 50 1017.9
20260508170158 65 25 1.0 3.0 0.00 0.00 0.00 48 1017.9
20260508165557 65 191 1.0 3.0 0.00 0.00 0.00 47 1018.1
20260508165354 65 106 1.0 3.0 0.00 0.00 0.00 48 1018.1
20260508165154 65 104 1.0 3.0 0.00 0.00 0.00 51 1018.1
20260508164952 65 104 1.0 3.0 0.00 0.00 0.00 55 1018.2
20260508164353 65 101 1.0 3.0 0.00 0.00 0.00 51 1018.3
20260508163753 65 102 1.0 3.0 0.00 0.00 0.00 59 1018.3
20260508163549 65 102 1.0 3.0 0.00 0.00 0.00 59 1018.4
20260508163346 65 101 1.0 3.0 0.00 0.00 0.00 59 1018.4
20260508163145 65 102 1.0 4.0 0.00 0.00 0.00 55 1018.4
20260508162944 64 102 1.0 4.0 0.00 0.00 0.00 54 1018.5
20260508162742 64 101 1.0 4.0 0.00 0.00 0.00 57 1018.5
20260508162540 64 326 1.0 4.0 0.00 0.00 0.00 55 1018.5
20260508162339 64 324 1.0 4.0 0.00 0.00 0.00 55 1018.5
20260508162141 64 346 1.0 3.0 0.00 0.00 0.00 55 1018.7
20260508161942 64 169 1.0 2.0 0.00 0.00 0.00 56 1018.7
20260508161738 64 165 1.0 2.0 0.00 0.00 0.00 54 1018.7
20260508160940 63 196 1.0 2.0 0.00 0.00 0.00 51 1018.8
20260508160536 63 205 1.0 3.0 0.00 0.00 0.00 50 1018.8
20260508160336 63 206 1.0 3.0 0.00 0.00 0.00 48 1018.9
20260508160138 63 206 1.0 3.0 0.00 0.00 0.00 49 1018.9
20260508155936 64 206 1.0 3.0 0.00 0.00 0.00 53 1018.9
20260508155733 64 161 1.0 3.0 0.00 0.00 0.00 56 1018.9
20260508155330 63 163 1.0 3.0 0.00 0.00 0.00 55 1018.9
20260508155128 63 162 1.0 3.0 0.00 0.00 0.00 53 1018.9
20260508154930 63 165 1.0 2.0 0.00 0.00 0.00 58 1018.9
20260508154729 63 168 1.0 2.0 0.00 0.00 0.00 58 1019.0
20260508154529 63 169 1.0 3.0 0.00 0.00 0.00 61 1019.0
20260508154327 63 169 1.0 3.0 0.00 0.00 0.00 61 1019.0
20260508154128 63 170 1.0 3.0 0.00 0.00 0.00 63 1019.0
20260508153730 63 176 2.0 4.0 0.00 0.00 0.00 62 1019.1
20260508153528 63 189 2.0 4.0 0.00 0.00 0.00 58 1019.1
20260508153328 63 37 2.0 6.0 0.00 0.00 0.00 57 1019.1
20260508152925 63 33 2.0 6.0 0.00 0.00 0.00 58 1019.2
20260508152724 63 348 1.0 6.0 0.00 0.00 0.00 64 1019.1
20260508152526 62 348 1.0 6.0 0.00 0.00 0.00 62 1019.2
20260508152323 62 130 1.0 3.0 0.00 0.00 0.00 61 1019.2
20260508152123 62 129 1.0 4.0 0.00 0.00 0.00 61 1019.2
20260508151923 62 130 1.0 4.0 0.00 0.00 0.00 60 1019.2
20260508151721 62 130 1.0 4.0 0.00 0.00 0.00 58 1019.2
20260508151517 62 130 1.0 4.0 0.00 0.00 0.00 64 1019.3
20260508151318 62 129 1.0 4.0 0.00 0.00 0.00 62 1019.2
20260508151117 62 185 1.0 4.0 0.00 0.00 0.00 61 1019.2
20260508150917 62 167 1.0 4.0 0.00 0.00 0.00 64 1019.2
20260508150715 62 167 1.0 4.0 0.00 0.00 0.00 66 1019.2
20260508150513 62 167 2.0 4.0 0.00 0.00 0.00 64 1019.2
20260508150313 62 65 1.0 4.0 0.00 0.00 0.00 68 1019.2
20260508150111 62 65 1.0 4.0 0.00 0.00 0.00 63 1019.2
20260508145709 62 305 1.0 3.0 0.00 0.00 0.00 67 1019.3
20260508145507 62 307 0.0 2.0 0.00 0.00 0.00 72 1019.3
20260508145309 61 283 1.0 3.0 0.00 0.00 0.00 71 1019.2
20260508145106 61 282 1.0 3.0 0.00 0.00 0.00 71 1019.3
20260508144906 62 281 1.0 5.0 0.00 0.00 0.00 72 1019.2
20260508144707 61 173 1.0 5.0 0.00 0.00 0.00 71 1019.2
20260508144506 61 171 2.0 5.0 0.00 0.00 0.00 78 1019.1
20260508144306 61 173 2.0 5.0 0.00 0.00 0.00 79 1019.2
20260508144107 61 173 2.0 5.0 0.00 0.00 0.00 71 1019.1
20260508143905 61 124 1.0 4.0 0.00 0.00 0.00 73 1019.2
20260508143704 60 129 1.0 4.0 0.00 0.00 0.00 77 1019.2
20260508143504 60 128 1.0 4.0 0.00 0.00 0.00 78 1019.1
20260508143305 60 288 1.0 3.0 0.00 0.00 0.00 76 1019.1
20260508143105 60 287 1.0 3.0 0.00 0.00 0.00 78 1019.2
20260508142904 60 287 1.0 3.0 0.00 0.00 0.00 81 1019.1
20260508142701 60 24 1.0 4.0 0.00 0.00 0.00 78 1019.1